Location: Colonia Mina de C?rbuni
(46.1667°N, 22.7167°E)
Time: 06:02:16
(UTC+00:00)

BREEZE M DEB (TANK) - Pass Details

Date: 04 February 2023
Orbit: 341 x 13534 km, 49.6° (Epoch: 19 March)

Event Time Altitude Azimuth Distance (km) Brightness Sun altitude
Rises 16:37:28 0° 295° (WNW) 4,940 8.6 -10.6°
Reaches altitude 10° 16:42:05 10° 290° (WNW) 2,778 7.4 -11.4°
Maximum altitude 16:47:04 43° 219° (SW) 718 3.8 -12.3°
Drops below altitude 10° 16:49:33 10° 144° (SE) 1,376 4.6 -12.7°
Enters shadow 16:49:57 - 141° (SE) 1,568 4.9 -12.8°
